| time (UTC) | temp F | wind direction | speed knots | gust knots | rain 1hr in | rain 24hr in | rain mn in | humidity % | barometer mb |
| 20260505051558 | 61 | 145 | 0.0 | 0.0 | 0.00 | 0.00 | 0.00 | 85 | 1014.2 |
| 20260505041538 | 63 | 146 | 0.0 | 0.0 | 0.00 | 0.00 | 0.00 | 80 | 1014.0 |
| 20260505040036 | 64 | 145 | 0.0 | 0.0 | 0.00 | 0.00 | 0.00 | 79 | 1014.1 |
| 20260505034530 | 64 | 145 | 0.0 | 0.9 | 0.00 | 0.00 | 0.00 | 77 | 1014.2 |
| 20260505033030 | 65 | 140 | 0.0 | 1.7 | 0.00 | 0.00 | 0.00 | 76 | 1014.2 |
| 20260505031529 | 65 | 191 | 0.0 | 2.6 | 0.00 | 0.00 | 0.00 | 76 | 1014.1 |
| 20260505030026 | 65 | 167 | 0.0 | 0.0 | 0.00 | 0.00 | 0.00 | 75 | 1014.1 |
| 20260505024524 | 66 | 167 | 0.0 | 0.0 | 0.00 | 0.00 | 0.00 | 74 | 1013.8 |
| 20260505023025 | 66 | 131 | 0.0 | 0.9 | 0.00 | 0.00 | 0.00 | 72 | 1013.7 |
| 20260505021527 | 66 | 125 | 0.0 | 0.9 | 0.00 | 0.00 | 0.00 | 71 | 1013.6 |
| 20260505020018 | 67 | 137 | 0.0 | 0.9 | 0.00 | 0.00 | 0.00 | 69 | 1013.7 |
| 20260505014516 | 68 | 191 | 0.0 | 0.0 | 0.00 | 0.00 | 0.00 | 67 | 1013.4 |
| 20260505013130 | 69 | 150 | 0.0 | 0.9 | 0.00 | 0.00 | 0.00 | 65 | 1013.3 |
| 20260505011512 | 70 | 158 | 0.0 | 2.6 | 0.00 | 0.00 | 0.00 | 62 | 1013.1 |
| 20260505010010 | 71 | 179 | 0.0 | 3.5 | 0.00 | 0.00 | 0.00 | 60 | 1013.2 |
| 20260505004514 | 72 | 169 | 0.0 | 2.6 | 0.00 | 0.00 | 0.00 | 57 | 1013.0 |
| 20260505003005 | 73 | 203 | 0.0 | 4.3 | 0.00 | 0.00 | 0.00 | 54 | 1013.2 |
| 20260505001502 | 74 | 162 | 1.7 | 8.7 | 0.00 | 0.00 | 0.00 | 51 | 1013.3 |
| 20260505000108 | 75 | 165 | 3.5 | 6.1 | 0.00 | 0.00 | 0.00 | 49 | 1013.7 |
| 20260504234558 | 76 | 158 | 2.6 | 7.8 | 0.00 | 0.00 | 0.00 | 49 | 1013.8 |
| 20260504233104 | 77 | 178 | 1.7 | 8.7 | 0.00 | 0.00 | 0.00 | 47 | 1013.8 |
| 20260504231553 | 78 | 220 | 3.5 | 9.6 | 0.00 | 0.00 | 0.00 | 46 | 1013.9 |
| 20260504230059 | 79 | 179 | 1.7 | 7.8 | 0.00 | 0.00 | 0.00 | 46 | 1013.9 |
| 20260504224547 | 79 | 150 | 2.6 | 9.6 | 0.00 | 0.00 | 0.00 | 45 | 1014.1 |
| 20260504223054 | 80 | 146 | 1.7 | 7.0 | 0.00 | 0.00 | 0.00 | 45 | 1014.1 |
| 20260504221543 | 80 | 153 | 2.6 | 8.7 | 0.00 | 0.00 | 0.00 | 45 | 1014.3 |
| 20260504220042 | 80 | 193 | 2.6 | 8.7 | 0.00 | 0.00 | 0.00 | 47 | 1014.4 |
| 20260504214541 | 81 | 183 | 2.6 | 8.7 | 0.00 | 0.00 | 0.00 | 46 | 1014.5 |
| 20260504213034 | 81 | 94 | 0.9 | 7.8 | 0.00 | 0.00 | 0.00 | 48 | 1014.6 |
| 20260504211534 | 80 | 149 | 3.5 | 7.8 | 0.00 | 0.00 | 0.00 | 47 | 1014.7 |
| 20260504210024 | 81 | 179 | 0.0 | 7.0 | 0.00 | 0.00 | 0.00 | 50 | 1015.0 |
| 20260504204523 | 80 | 209 | 4.3 | 8.7 | 0.00 | 0.00 | 0.00 | 47 | 1015.2 |
| 20260504203019 | 80 | 98 | 2.6 | 8.7 | 0.00 | 0.00 | 0.00 | 49 | 1015.4 |
| 20260504201514 | 79 | 199 | 2.6 | 9.6 | 0.00 | 0.00 | 0.00 | 48 | 1015.6 |
| 20260504200011 | 80 | 166 | 0.9 | 8.7 | 0.00 | 0.00 | 0.00 | 50 | 1015.6 |
| 20260504194508 | 80 | 177 | 3.5 | 8.7 | 0.00 | 0.00 | 0.00 | 46 | 1016.1 |
| 20260504193004 | 80 | 23 | 5.2 | 10.4 | 0.00 | 0.00 | 0.00 | 45 | 1016.4 |
| 20260504191605 | 79 | 194 | 1.7 | 7.8 | 0.00 | 0.00 | 0.00 | 49 | 1016.5 |
| 20260504190116 | 80 | 217 | 3.5 | 9.6 | 0.00 | 0.00 | 0.00 | 47 | 1016.7 |
| 20260504184618 | 79 | 217 | 3.5 | 12.2 | 0.00 | 0.00 | 0.00 | 48 | 1016.7 |
| 20260504183052 | 79 | 210 | 0.9 | 7.8 | 0.00 | 0.00 | 0.00 | 51 | 1017.0 |
| 20260504181549 | 78 | 136 | 0.9 | 6.1 | 0.00 | 0.00 | 0.00 | 48 | 1017.3 |
| 20260504180052 | 78 | 163 | 0.9 | 8.7 | 0.00 | 0.00 | 0.00 | 49 | 1017.5 |
| 20260504174545 | 78 | 207 | 3.5 | 8.7 | 0.00 | 0.00 | 0.00 | 50 | 1017.6 |
| 20260504173041 | 78 | 162 | 2.6 | 6.1 | 0.00 | 0.00 | 0.00 | 47 | 1017.6 |
| 20260504171537 | 78 | 136 | 2.6 | 7.8 | 0.00 | 0.00 | 0.00 | 47 | 1017.8 |
| 20260504081536 | 54 | 151 | 0.0 | 0.0 | 0.00 | 0.00 | 0.00 | 92 | 1018.2 |